Regional Weather Roundup
Issued by NWS

Home | Current Version | Previous Version | Graphics & Text | Print | Product List | Glossary On
Versions: 1 2 3 4 5 6 7 8 9 10 11 12 13 14 15 16 17 18 19 20 21 22 23 24 25 26 27 28 29 30 31 32 33 34 35 36 37 38 39 40 41 42 43 44 45 46 47 48 49 50
000
ASUS43 KLMK 211302
RWRKY
KENTUCKY REGIONAL WEATHER ROUNDUP
NATIONAL WEATHER SERVICE LOUISVILLE KY
900 AM EDT SUN SEP 21 2014

NOTE "FAIR" INDICATES FEW OR NO CLOUDS BELOW 12,000 FEET
WITH NO SIGNIFICANT WEATHER AND/OR OBSTRUCTIONS TO VISIBILITY.

KYZ001>023-026-027-061>063-070>075-211400-
WESTERN AND SOUTH CENTRAL KENTUCKY

CITY           SKY/WX    TMP DP  RH WIND       PRES   REMARKS
PADUCAH        PTSUNNY   74  68  81 W7        29.96R
HENDERSON      CLOUDY    70  66  88 W6        29.94R
OWENSBORO      LGT RAIN  71  69  93 W9        29.93R
HOPKINSVILLE   PTSUNNY   71  71 100 SW10      29.96R
BOWLING GREEN  PTSUNNY   70  65  84 SW9       29.94S
GLASGOW        CLOUDY    69  67  93 SW6       29.94S
$$

KYZ024-025-028>034-038-045-046-053-211400-
NORTH CENTRAL KENTUCKY

CITY           SKY/WX    TMP DP  RH WIND       PRES   REMARKS
LOUISVILLE/SDF CLOUDY    73  67  81 SW9       29.88S
LOUISVILLE/LOU PTSUNNY   72  67  84 SW6       29.88F
FORT KNOX      CLOUDY    71  67  85 W8        29.89F
$$

KYZ035>037-039>044-047>052-055>060-089>105-211400-
NORTHEAST KENTUCKY

CITY           SKY/WX    TMP DP  RH WIND       PRES   REMARKS
LEXINGTON      PTSUNNY   72  66  81 SW10      29.90S
COVINGTON      PTSUNNY   72  66  81 W8        29.85S
FRANKFORT      CLOUDY    70  66  87 W5        29.88S
$$

KYZ054-064>069-076>088-106>120-211400-
SOUTHEAST KENTUCKY

CITY           SKY/WX    TMP DP  RH WIND       PRES   REMARKS
JACKSON        MOSUNNY   68  63  84 VRB3      29.94F
LONDON         MOSUNNY   68  62  81 S6        29.97F
SOMERSET       PTSUNNY   64  64 100 CALM      29.96F
MIDDLESBORO    FOG       59  59 100 CALM      30.01S VSB 1/2
MONTICELLO     MOSUNNY   71  66  84 SW9       29.97F
$$




USA.gov is the U.S. government's official web portal to all federal, state and local government web resources and services.